Temperature
15 15 15 15 15 15 14 14 13 14 14 15 15 13 13 13 13 13 13 12 12 11 10 10 10 9 9 9 8 8 8 8 7 7 7 6 6 6 6 5 5 5 4 4
13 14 14 14 14 14 14 14 14 14 14 15 14 13 13 12 12 12 12 11 11 10 10 9 9 8 8 8 7 7 7 7 7 6 6 6 5 5 5 5 4 4 3 3
11 13 13 12 14 14 14 15 15 13 14 13 13 12 12 12 12 12 11 10 10 9 9 8 8 8 7 7 7 7 6 6 6 5 5 5 4 4 4 3 3 3 2 2
10 11 9 13 16 15 15 14 14 14 13 12 12 12 12 12 11 10 9 9 9 8 8 7 7 7 6 6 6 6 6 5 5 4 4 4 3 3 2 2 1 1 1 1
10 9 10 13 14 14 13 13 13 12 12 12 12 11 11 11 10 9 9 8 8 7 7 6 6 6 5 5 5 5 5 4 4 3 3 2 2 2 1 1 0 0 -0 -0
9 8 8 13 12 13 12 11 11 11 11 11 10 7 8 9 8 8 8 7 7 6 6 6 5 5 5 4 4 4 4 3 3 3 2 1 1 0 0 -0 -0 -0 -1 -1
8 8 9 13 12 12 11 11 11 11 10 9 8 7 8 8 7 7 6 6 6 5 5 5 5 4 4 4 3 3 3 2 2 1 1 0 0 -0 -1 -1 -1 -1 -1 -1
8 8 9 12 12 11 11 12 11 10 9 8 8 7 7 6 6 6 5 5 5 4 4 4 4 4 3 3 3 2 2 1 1 0 -0 -0 -1 -1 -1 -1 -2 -2 -2 -2
10 10 13 13 13 12 11 10 9 8 8 7 7 6 6 5 5 5 4 4 4 4 4 4 3 3 2 2 2 1 0 0 -0 -1 -1 -1 -1 -2 -2 -2 -2 -2 -3 -3
10 11 12 13 12 11 10 8 8 7 7 6 5 5 5 4 4 4 4 4 3 3 3 3 2 2 1 1 0 -0 -1 -1 -1 -1 -1 -2 -2 -2 -2 -2 -2 -3 -3 -3
9 10 11 11 10 9 8 7 7 6 6 5 4 4 4 3 3 3 3 3 3 2 2 1 1 1 0 -0 -1 -1 -1 -1 -2 -2 -2 -2 -2 -2 -3 -3 -3 -3 -3 -4
8 9 8 8 8 7 7 6 6 5 5 4 4 3 3 3 3 3 2 2 2 1 1 1 0 -0 -1 -1 -1 -2 -2 -2 -2 -3 -3 -3 -3 -3 -3 -3 -3 -3 -3 -4
9 8 7 7 6 6 5 5 5 4 4 4 3 3 3 2 2 2 2 1 1 0 0 -0 -1 -1 -1 -2 -2 -3 -3 -3 -3 -3 -3 -3 -3 -3 -3 -3 -3 -3 -3 -4
7 6 6 6 5 5 5 4 4 4 4 3 3 3 2 2 2 1 1 1 0 -0 -0 -1 -1 -1 -1 -2 -3 -3 -4 -4 -4 -4 -4 -4 -4 -4 -4 -4 -3 -3 -3 -3
6 6 5 5 5 5 4 4 4 3 3 3 2 2 2 1 1 1 0 0 -0 -1 -1 -1 -1 -2 -2 -3 -3 -4 -4 -4 -5 -4 -4 -4 -4 -4 -4 -4 -4 -3 -3 -3
5 5 5 4 4 4 4 3 3 3 2 2 2 1 1 1 0 0 -0 -0 -1 -1 -1 -2 -2 -2 -3 -3 -4 -5 -5 -5 -5 -5 -5 -4 -4 -4 -4 -4 -4 -4 -4 -4
4 4 4 4 4 4 3 3 2 2 2 1 1 1 0 0 -0 -0 -1 -1 -1 -2 -2 -2 -3 -3 -4 -4 -5 -5 -5 -5 -5 -5 -5 -5 -4 -4 -4 -4 -4 -4 -4 -4
4 4 4 4 3 3 3 2 2 2 1 1 1 0 -0 -0 -1 -1 -1 -1 -2 -2 -2 -3 -3 -4 -4 -5 -5 -6 -6 -6 -5 -5 -5 -5 -4 -4 -4 -4 -4 -4 -4 -4
4 4 4 3 3 2 2 2 2 1 1 0 0 -0 -0 -1 -1 -1 -2 -2 -3 -3 -3 -4 -4 -5 -5 -5 -6 -6 -6 -6 -6 -5 -5 -5 -4 -4 -4 -4 -4 -4 -4 -5
4 3 3 3 3 2 2 1 1 1 1 0 -0 -0 -1 -1 -1 -2 -2 -3 -3 -4 -4 -5 -5 -5 -6 -6 -6 -6 -6 -6 -6 -5 -5 -5 -4 -4 -4 -4 -4 -4 -5 -5
3 3 2 2 2 2 1 1 1 0 0 0 -0 -1 -1 -1 -1 -2 -3 -4 -3 -4 -5 -5 -6 -6 -6 -6 -6 -6 -6 -6 -5 -5 -5 -5 -4 -4 -4 -4 -4 -5 -5 -5
2 2 2 2 1 1 1 1 0 0 -0 -0 -1 -1 -1 -2 -2 -3 -3 -4 -4 -5 -5 -6 -6 -6 -6 -6 -6 -6 -6 -5 -5 -5 -5 -4 -4 -4 -4 -5 -5 -5 -5 -6
2 2 1 1 1 1 0 0 0 -0 -0 -1 -1 -1 -2 -2 -3 -4 -4 -4 -5 -5 -6 -6 -6 -6 -6 -6 -6 -6 -6 -5 -5 -5 -5 -5 -5 -5 -5 -5 -5 -6 -6 -7
1 1 1 1 0 -0 -0 -0 -0 -1 -1 -1 -2 -2 -2 -3 -3 -4 -4 -5 -5 -6 -6 -6 -7 -7 -7 -6 -6 -6 -6 -5 -5 -5 -5 -5 -5 -5 -5 -5 -6 -6 -7 -7
1 0 0 -0 -0 -1 -1 -1 -1 -2 -2 -2 -2 -3 -3 -4 -4 -5 -5 -5 -6 -6 -7 -7 -7 -7 -7 -6 -6 -6 -6 -5 -5 -5 -5 -5 -5 -6 -6 -6 -6 -7 -7 -7
-0 -0 -1 -1 -1 -1 -1 -2 -2 -2 -3 -3 -3 -3 -4 -4 -5 -5 -6 -6 -7 -7 -7 -7 -7 -7 -7 -7 -6 -6 -6 -6 -5 -5 -5 -6 -6 -6 -6 -7 -7 -7 -7 -8
-1 -1 -1 -2 -2 -2 -2 -3 -3 -3 -3 -4 -4 -4 -4 -5 -5 -6 -6 -7 -7 -8 -8 -8 -8 -8 -7 -7 -7 -6 -6 -6 -6 -6 -6 -6 -6 -7 -7 -7 -7 -7 -8 -7
Wind_Speed
11 12 12 13 14 12 13 13 15 17 18 17 7 6 7 8 8 8 9 8 6 7 7 8 8 8 8 8 9 8 8 9 9 9 9 9 9 9 10 11 12 11 11 12
11 11 13 18 18 16 16 15 15 16 16 4 5 6 7 9 10 11 9 8 9 10 10 9 9 9 9 9 9 9 10 10 10 10 9 9 10 10 11 11 11 11 12 12
5 7 11 11 12 10 7 6 7 9 6 4 6 7 7 9 11 9 9 11 11 11 10 9 9 9 9 9 9 10 11 12 11 10 9 10 10 11 11 12 11 12 12 12
5 6 9 8 3 1 2 6 8 7 4 7 6 7 7 9 8 10 11 12 11 10 9 8 8 9 9 9 10 11 12 12 11 10 10 10 11 11 12 11 11 11 11 12
3 5 10 10 4 2 2 5 5 5 7 8 9 9 7 7 10 11 11 11 9 8 8 9 10 10 10 10 11 12 12 12 10 10 10 11 11 12 11 11 10 10 9 11
5 5 7 4 3 3 2 2 7 8 8 9 10 9 7 10 12 12 11 9 9 8 8 10 10 11 11 12 12 12 12 11 10 10 11 12 12 12 10 10 10 10 10 9
6 6 9 3 4 1 2 2 4 7 7 8 7 8 10 12 11 10 10 9 9 9 9 10 11 11 13 13 13 12 11 11 11 11 11 12 12 10 11 10 10 10 10 9
6 7 8 3 2 1 5 6 7 8 8 9 10 11 11 11 11 10 9 9 9 9 10 11 11 12 14 14 13 12 12 12 12 11 11 11 11 11 10 10 10 10 10 9
6 7 2 2 3 5 6 7 7 7 8 9 10 10 10 9 9 9 9 9 9 10 12 12 12 12 15 14 13 13 13 12 12 11 10 10 11 12 10 9 9 9 8 9
6 6 7 9 9 8 8 8 8 8 8 8 8 9 9 8 8 9 9 10 10 11 13 14 13 12 13 14 14 14 13 13 11 11 11 11 9 8 9 9 9 9 9 9
10 10 10 6 7 10 9 9 9 8 7 7 7 8 8 8 9 9 10 9 10 11 14 16 14 13 13 14 14 14 13 12 11 10 12 11 10 9 10 9 11 12 9 8
9 7 6 7 9 10 9 9 8 8 8 7 6 8 9 9 9 9 11 11 12 13 14 15 15 15 14 13 12 13 12 11 10 10 10 11 12 12 15 16 21 22 20 17
5 6 6 8 8 7 7 7 7 6 7 8 8 8 9 9 9 11 12 13 14 15 15 16 16 16 14 12 11 12 12 13 11 11 12 12 12 12 13 14 17 19 20 20
6 6 6 6 7 7 7 6 5 6 7 8 8 9 9 10 11 13 14 13 15 17 17 16 15 15 13 12 12 12 12 15 15 12 12 12 12 12 12 13 13 10 12 17
4 4 6 8 8 7 6 5 6 8 8 9 9 9 10 12 14 14 14 15 16 16 14 14 17 17 14 13 12 12 12 11 11 12 12 12 12 12 12 12 12 11 9 10
6 7 8 8 8 7 6 6 8 9 9 10 10 11 12 12 14 16 15 14 14 16 16 16 17 16 14 12 12 11 11 20 19 14 12 12 12 12 12 12 12 11 10 8
4 6 6 7 8 8 7 7 8 9 10 11 12 12 13 13 15 16 14 13 14 16 15 15 17 15 12 11 12 11 11 14 21 16 12 13 13 13 12 12 12 11 9 9
5 6 7 8 8 9 9 9 9 10 11 12 13 13 12 13 16 17 17 16 15 15 14 14 14 13 12 12 11 10 11 12 12 13 13 13 13 12 12 12 12 12 9 8
6 7 8 8 8 8 9 10 11 11 11 12 12 13 13 14 14 16 15 16 18 20 16 12 21 17 13 14 17 10 11 13 13 13 13 17 16 12 12 11 11 10 8 6
7 8 9 9 10 9 10 11 12 12 12 11 12 13 15 15 13 14 15 16 14 13 14 17 16 11 11 12 19 11 12 14 15 14 14 13 13 12 11 11 10 9 7 6
9 10 10 11 11 12 11 12 12 13 13 11 12 14 16 16 14 13 14 17 14 12 14 21 13 10 11 15 20 13 13 14 14 14 14 13 12 12 11 10 9 7 5 5
9 10 11 11 12 12 11 10 10 12 13 13 13 13 14 16 14 13 12 13 15 19 15 11 10 17 21 24 14 13 13 14 13 13 12 12 12 11 10 10 8 6 4 4
10 11 11 11 12 13 12 11 11 12 14 14 14 14 15 15 12 13 15 11 10 19 16 11 19 28 31 19 12 12 13 14 13 13 12 11 11 10 10 9 6 4 3 3
12 12 12 12 12 13 16 16 13 12 13 13 13 13 14 13 11 9 10 17 21 24 14 18 28 30 27 13 11 12 12 13 13 12 12 11 10 9 8 6 5 3 2 2
12 12 12 12 12 12 14 14 12 11 11 11 11 11 10 9 10 11 10 12 19 22 13 18 26 27 18 12 12 13 12 13 14 13 11 10 9 8 6 5 3 1 1 2
12 12 12 12 11 11 10 9 10 10 9 10 10 8 8 7 9 10 10 12 14 20 15 12 14 17 13 13 13 13 13 14 14 11 9 9 8 7 5 3 1 1 2 3
12 11 10 9 9 9 9 9 10 10 9 10 11 9 8 8 9 10 11 11 11 11 11 11 12 12 13 13 13 13 13 12 11 9 8 7 6 5 3 2 0 1 3 4
Wind_Direction
273 288 296 290 281 272 262 259 265 274 282 293 327 36 27 10 354 334 315 312 327 330 322 316 316 319 322 318 312 309 304 298 289 285 284 284 283 280 276 269 262 254 249 245
275 278 280 278 271 265 264 260 262 273 279 302 69 35 11 353 330 311 315 335 337 327 318 316 318 319 318 312 309 310 305 295 289 287 285 283 281 280 277 272 267 260 253 249
278 297 302 276 263 247 236 247 266 275 296 27 22 13 352 325 309 325 343 337 324 316 316 319 319 318 313 306 309 309 301 296 293 289 286 283 282 282 277 273 267 261 256 250
280 301 254 250 294 147 280 291 294 298 3 36 9 346 322 311 341 346 335 325 319 319 321 319 317 313 306 307 308 303 298 295 293 291 288 287 284 281 279 274 267 263 259 252
251 265 277 276 294 32 5 296 333 20 21 352 339 330 316 343 353 334 325 321 319 323 323 321 314 309 309 306 300 297 295 294 295 296 293 291 288 284 281 278 273 267 262 255
217 230 252 289 83 62 24 281 34 16 350 340 347 327 313 338 331 324 323 323 326 327 323 315 309 311 309 301 298 296 295 296 300 300 297 294 290 288 287 284 280 275 268 257
231 239 260 286 138 110 241 291 2 350 345 347 335 305 311 324 324 322 321 325 325 321 314 305 306 307 302 299 298 298 302 303 302 298 295 294 294 292 292 289 287 282 276 267
199 221 253 141 134 253 303 340 353 1 356 338 320 315 318 321 323 326 326 322 318 313 305 302 303 304 301 300 301 304 304 301 298 296 297 297 294 294 290 290 291 288 284 280
208 224 273 122 317 325 355 356 1 352 336 326 318 316 320 321 322 319 312 308 307 305 303 301 301 301 302 304 308 308 305 301 299 298 296 293 293 296 296 292 290 289 284 283
281 284 317 324 330 356 10 1 346 337 330 327 317 316 317 315 310 306 301 302 304 304 303 303 303 302 303 308 309 306 304 302 299 299 298 295 291 290 291 289 287 286 284 283
273 285 297 308 357 357 351 345 335 331 328 322 314 307 306 302 297 297 300 299 300 300 301 303 309 309 306 304 305 302 299 298 298 297 296 297 292 289 287 277 278 284 280 272
273 309 322 324 341 343 339 331 329 325 318 313 304 295 292 289 290 295 300 302 304 303 303 305 306 303 302 301 301 303 304 303 300 298 297 295 296 295 287 285 291 288 284 280
306 339 325 315 324 336 325 316 316 310 300 297 292 286 287 290 295 297 298 301 302 303 302 301 300 300 302 307 309 306 303 302 302 298 297 296 295 296 298 298 293 291 288 287
344 336 309 315 316 316 307 304 301 293 286 280 281 286 290 293 293 293 295 296 297 297 296 296 299 302 306 308 304 298 297 300 301 296 294 293 293 292 293 295 299 293 289 289
319 320 300 300 297 293 288 287 287 284 283 284 287 290 290 291 293 295 295 294 294 293 295 300 302 302 302 300 297 295 297 296 294 292 290 290 289 289 288 287 287 289 287 285
312 307 295 293 293 294 291 285 280 280 283 286 290 289 289 288 290 293 293 293 298 302 301 299 297 298 299 298 296 297 297 298 300 296 293 292 290 289 289 288 288 286 283 278
286 289 296 301 301 300 293 283 279 282 287 289 290 291 291 292 294 295 297 298 295 292 293 294 295 296 294 295 296 297 295 297 299 297 292 291 291 291 290 287 286 285 278 271
250 264 276 280 283 289 291 288 285 286 286 286 289 290 291 295 299 300 300 301 300 297 293 290 291 296 294 294 295 294 294 294 294 293 293 292 291 288 287 286 286 285 281 274
266 271 276 278 279 282 284 287 287 285 284 285 286 289 291 291 291 294 300 303 303 303 301 294 301 305 297 297 304 295 295 295 295 294 293 292 293 290 289 288 287 284 276 262
276 278 279 279 279 275 277 279 281 282 282 282 286 291 293 293 292 295 298 296 292 290 294 299 301 297 297 299 305 298 296 296 296 295 294 292 292 292 292 291 288 281 269 255
272 276 277 277 276 272 269 273 280 285 286 284 284 287 290 292 292 293 297 299 297 293 298 304 308 303 304 306 307 302 298 296 295 295 294 294 294 294 294 292 288 278 265 252
269 271 272 273 275 277 275 273 277 283 288 288 285 284 287 291 293 291 282 287 296 301 306 301 301 305 311 311 306 302 299 297 296 294 293 294 295 298 297 294 287 278 261 242
269 271 276 279 280 282 285 283 280 281 282 283 283 283 284 285 288 292 297 295 296 304 309 300 306 311 313 314 306 303 300 298 297 295 295 296 297 296 294 292 288 278 252 230
273 274 274 276 279 282 284 283 278 274 272 275 275 274 277 284 286 278 279 298 308 308 306 305 311 313 316 313 305 302 300 299 298 296 297 297 296 296 296 294 289 271 237 199
269 269 270 270 272 274 275 277 278 277 275 275 272 268 267 268 280 292 295 300 305 308 306 308 311 313 313 305 303 302 302 299 298 300 300 301 302 303 299 294 284 251 185 162
271 271 270 266 265 270 273 275 278 278 277 281 281 278 277 278 284 293 296 297 297 304 307 305 305 307 307 304 303 303 303 303 303 303 302 303 303 304 303 298 274 204 155 143
275 273 275 276 271 265 266 267 271 274 273 277 285 285 284 288 290 293 294 297 299 300 302 303 305 305 305 304 305 304 305 305 305 306 306 305 306 306 304 295 267 136 133 134
Height
1512 1508 1507 1507 1506 1505 1506 1505 1506 1497 1494 1487 1485 1485 1485 1485 1484 1483 1481 1479 1477 1475 1472 1470 1466 1462 1458 1454 1450 1446 1441 1437 1432 1427 1422 1417 1412 1407 1403 1398 1394 1390 1386 1383
1513 1508 1506 1503 1497 1496 1496 1495 1494 1492 1489 1482 1484 1484 1484 1484 1483 1481 1478 1476 1474 1471 1469 1465 1461 1457 1453 1449 1445 1441 1436 1430 1425 1420 1415 1409 1404 1399 1393 1388 1384 1380 1376 1373
1517 1508 1507 1504 1488 1487 1487 1484 1486 1489 1486 1482 1483 1483 1484 1483 1481 1478 1476 1473 1471 1468 1464 1460 1456 1452 1448 1443 1439 1435 1430 1424 1419 1413 1407 1401 1396 1390 1384 1379 1374 1370 1366 1362
1518 1514 1519 1495 1479 1479 1482 1483 1483 1482 1482 1482 1483 1483 1483 1481 1479 1476 1473 1470 1467 1463 1459 1455 1451 1447 1443 1438 1434 1428 1423 1417 1412 1406 1399 1393 1387 1381 1376 1371 1365 1361 1356 1353
1518 1518 1506 1488 1481 1480 1483 1484 1481 1481 1482 1482 1481 1479 1479 1479 1476 1473 1470 1466 1462 1458 1454 1450 1446 1442 1437 1432 1427 1421 1416 1410 1405 1399 1392 1386 1379 1373 1368 1363 1357 1353 1348 1344
1516 1519 1513 1487 1484 1482 1485 1487 1484 1482 1482 1482 1480 1481 1478 1476 1473 1470 1466 1462 1458 1453 1449 1446 1441 1437 1432 1426 1420 1415 1409 1403 1398 1392 1385 1378 1372 1366 1361 1356 1350 1345 1340 1337
1515 1514 1500 1483 1483 1484 1492 1489 1484 1482 1481 1481 1480 1479 1475 1471 1468 1465 1461 1457 1453 1449 1445 1441 1437 1432 1426 1420 1414 1409 1403 1396 1390 1384 1378 1371 1365 1360 1354 1349 1343 1338 1333 1329
1507 1509 1501 1483 1483 1485 1485 1481 1480 1479 1478 1477 1476 1473 1470 1467 1463 1460 1456 1452 1449 1445 1440 1436 1432 1426 1419 1413 1408 1401 1395 1388 1382 1376 1370 1364 1358 1353 1348 1342 1336 1331 1326 1322
1490 1490 1481 1481 1481 1481 1480 1479 1478 1477 1476 1474 1471 1468 1465 1462 1459 1456 1452 1449 1445 1440 1435 1430 1425 1420 1413 1406 1400 1393 1386 1380 1374 1368 1363 1357 1352 1346 1341 1336 1330 1325 1320 1315
1485 1479 1478 1478 1479 1478 1477 1477 1475 1474 1472 1469 1467 1464 1461 1458 1455 1452 1448 1444 1440 1435 1429 1422 1418 1413 1407 1399 1392 1385 1378 1372 1366 1361 1355 1350 1345 1340 1335 1330 1324 1319 1314 1310
1482 1479 1477 1476 1477 1476 1474 1473 1471 1469 1468 1465 1463 1460 1457 1454 1451 1448 1444 1440 1435 1429 1422 1416 1410 1404 1398 1392 1385 1378 1371 1365 1359 1354 1348 1342 1338 1334 1329 1324 1320 1315 1309 1305
1480 1478 1478 1476 1475 1473 1471 1470 1468 1466 1463 1461 1459 1457 1454 1450 1447 1443 1439 1434 1428 1422 1416 1409 1402 1395 1390 1385 1379 1372 1364 1358 1352 1346 1341 1336 1330 1325 1322 1318 1313 1309 1305 1301
1475 1474 1474 1473 1472 1470 1468 1466 1464 1462 1460 1458 1455 1453 1450 1446 1442 1438 1433 1427 1421 1415 1408 1401 1394 1388 1383 1377 1371 1365 1358 1351 1345 1339 1334 1329 1324 1319 1313 1309 1307 1302 1298 1294
1472 1471 1470 1470 1469 1467 1465 1462 1460 1458 1456 1454 1451 1449 1445 1441 1436 1431 1426 1420 1414 1407 1400 1394 1387 1381 1376 1369 1363 1357 1351 1345 1339 1333 1328 1323 1318 1314 1308 1303 1298 1294 1291 1288
1469 1469 1468 1466 1464 1462 1461 1458 1456 1454 1452 1450 1447 1444 1440 1435 1429 1423 1418 1412 1405 1399 1393 1386 1379 1372 1367 1361 1355 1349 1343 1337 1331 1326 1321 1317 1312 1307 1303 1298 1293 1288 1284 1281
1466 1465 1464 1462 1461 1459 1457 1455 1453 1450 1447 1444 1441 1437 1433 1428 1422 1415 1410 1405 1399 1391 1384 1377 1370 1364 1359 1353 1347 1341 1335 1330 1325 1320 1315 1310 1306 1301 1296 1292 1287 1282 1278 1274
1462 1461 1460 1459 1457 1455 1454 1452 1449 1445 1442 1438 1434 1430 1425 1419 1413 1407 1401 1397 1391 1383 1376 1369 1362 1356 1351 1346 1340 1333 1327 1322 1317 1313 1308 1304 1299 1294 1290 1285 1280 1276 1272 1269
1459 1458 1457 1455 1453 1451 1448 1446 1443 1440 1436 1432 1427 1422 1417 1412 1406 1399 1393 1386 1379 1372 1367 1361 1355 1349 1343 1338 1333 1326 1321 1315 1311 1306 1301 1297 1292 1288 1283 1278 1274 1270 1265 1263
1455 1454 1453 1451 1449 1446 1443 1440 1437 1433 1429 1425 1421 1415 1410 1405 1399 1392 1385 1378 1371 1362 1356 1352 1347 1342 1336 1331 1326 1320 1314 1309 1304 1299 1295 1290 1285 1281 1276 1272 1268 1264 1260 1257
1451 1450 1448 1446 1443 1441 1437 1433 1430 1425 1422 1418 1413 1407 1401 1395 1390 1384 1377 1370 1364 1358 1351 1345 1340 1334 1329 1324 1319 1313 1308 1303 1297 1292 1288 1283 1279 1274 1270 1266 1262 1258 1254 1252
1447 1445 1443 1440 1437 1434 1431 1427 1423 1418 1414 1410 1405 1399 1393 1387 1382 1376 1369 1361 1355 1351 1345 1339 1334 1328 1322 1317 1312 1306 1301 1296 1291 1286 1282 1277 1273 1268 1264 1260 1256 1252 1249 1247
1442 1439 1436 1434 1430 1426 1423 1420 1416 1411 1406 1401 1396 1391 1385 1379 1373 1367 1362 1356 1349 1344 1338 1332 1327 1321 1316 1311 1305 1299 1294 1289 1285 1280 1276 1272 1267 1262 1258 1254 1250 1247 1244 1242
1436 1433 1429 1426 1423 1418 1414 1410 1407 1402 1397 1392 1387 1382 1377 1371 1366 1360 1352 1348 1343 1338 1332 1326 1320 1315 1310 1304 1298 1293 1288 1283 1279 1275 1270 1266 1261 1257 1252 1248 1245 1242 1240 1239
1427 1424 1421 1417 1413 1409 1403 1399 1396 1391 1387 1382 1378 1374 1370 1363 1357 1353 1348 1342 1337 1331 1325 1319 1314 1308 1303 1298 1292 1287 1283 1278 1274 1269 1265 1260 1256 1251 1247 1244 1241 1238 1237 1236
1418 1415 1411 1407 1402 1398 1393 1389 1385 1381 1377 1373 1369 1366 1362 1357 1352 1345 1340 1335 1329 1324 1318 1312 1307 1302 1297 1292 1287 1282 1278 1273 1269 1264 1260 1255 1251 1247 1243 1240 1237 1235 1234 1234
1408 1404 1400 1397 1393 1389 1385 1381 1376 1372 1369 1364 1360 1357 1353 1349 1344 1339 1333 1328 1322 1317 1312 1306 1301 1296 1291 1286 1282 1277 1272 1268 1263 1259 1254 1250 1246 1242 1239 1236 1235 1233 1233 1233
1398 1394 1390 1386 1382 1380 1376 1372 1368 1364 1361 1357 1352 1348 1345 1341 1336 1331 1326 1321 1316 1311 1306 1301 1296 1291 1286 1281 1276 1272 1267 1263 1258 1254 1250 1246 1242 1239 1236 1234 1233 1232 1232 1233